Change the Weather History Date:

Friday, March 29, 2013

  Actual Average (KRUG) Record (KRUG)
Temperature  
Mean Temperature 16 °F -  
Max Temperature 33 °F 41 °F 70 °F (1967)
Min Temperature 0 °F 22 °F -20 °F (1969)
Degree Days  
Heating Degree Days 48    
Moisture  
Dew Point 21 °F    
Average Humidity 98    
Maximum Humidity 100    
Minimum Humidity 85    
Precipitation  
Precipitation 0.00 in - - ()
Sea Level Pressure  
Sea Level Pressure 30.08 in    
Wind  
Wind Speed 6 mph (SSW)    
Max Wind Speed 13 mph    
Max Gust Speed 17 mph    
Visibility 8 miles    
Events Fog , Rain , Snow    
Averages and records for this station are not official NWS values.
T = Trace of Precipitation, MM = Missing Value Source: NWS Daily Summary

Daily Weather History Graph

Daily Weather History Graph

Search for Another Location

Airport or City:

Trip Planner

Search our weather history database for the weather conditions in past years. The results will help you decide how hot, cold, wet, or windy it might be!

Date:

Astronomy

Mar. 29, 2013 Rise Set
Actual Time 7:21 AM CDT 8:05 PM CDT
Civil Twilight 6:49 AM CDT 8:37 PM CDT
Nautical Twilight 6:11 AM CDT 9:15 PM CDT
Astronomical Twilight 5:32 AM CDT 9:55 PM CDT
Moon 11:25 PM CDT (3/29) 8:16 AM CDT (3/29)
Length of Visible Light 13h 47m
Length of Day
12h 43m
Waning Gibbous, 93% of the Moon is Illuminated
Mar 29
Waning Gibbous
Apr 2
Last Quarter
Apr 10
New
Apr 18
First Quarter
Apr 25
Full

Hourly Weather History & Observations

Time (CDT) Temp. Windchill Dew Point Humidity Pressure Visibility Wind Dir Wind Speed Gust Speed Precip Events Conditions
12:15 AM 14.0 °F 3.9 °F 14.0 °F 100% 30.19 in 0.2 mi SSW 6.9 mph - N/A Fog Light Freezing Fog
12:35 AM 14.0 °F 3.9 °F 14.0 °F 100% 30.19 in 2.0 mi SSW 6.9 mph - N/A   Mostly Cloudy
12:55 AM 14.0 °F 3.9 °F 14.0 °F 100% 30.19 in 4.0 mi SSW 6.9 mph - N/A   Clear
1:15 AM 14.0 °F 1.2 °F 14.0 °F 100% 30.19 in 3.0 mi SSW 10.4 mph - N/A   Clear
1:55 AM 14.0 °F 2.9 °F 14.0 °F 100% 30.19 in 1.0 mi South 8.1 mph - N/A   Overcast
2:15 AM 12.2 °F 1.7 °F 12.2 °F 100% 30.18 in 3.0 mi SSW 6.9 mph - N/A   Scattered Clouds
2:35 AM 12.2 °F 0.7 °F 12.2 °F 100% 30.18 in 1.5 mi South 8.1 mph - N/A   Clear
2:55 AM 12.2 °F 1.7 °F 12.2 °F 100% 30.17 in 5.0 mi South 6.9 mph - N/A   Clear
3:35 AM 10.4 °F 2.2 °F 10.4 °F 100% 30.17 in 8.0 mi WSW 4.6 mph - N/A   Clear
3:55 AM 8.6 °F - 8.6 °F 100% 30.16 in 7.0 mi Calm Calm - N/A   Clear
4:15 AM 8.6 °F - 6.8 °F 92% 30.16 in 9.0 mi Calm Calm - N/A   Clear
4:35 AM 6.8 °F -0.1 °F 6.8 °F 100% 30.15 in 7.0 mi SW 3.5 mph - N/A   Clear
4:55 AM 8.6 °F 2.0 °F 6.8 °F 92% 30.15 in 6.0 mi WSW 3.5 mph - N/A   Clear
5:15 AM 3.2 °F -4.2 °F 1.4 °F 92% 30.15 in 10.0 mi North 3.5 mph - N/A   Clear
5:35 AM 1.4 °F - -0.4 °F 92% 30.15 in 0.8 mi Calm Calm - N/A   Mist
5:55 AM 1.4 °F -6.2 °F -0.4 °F 92% 30.15 in 0.2 mi NNE 3.5 mph - N/A Snow Heavy Snow
6:15 AM 1.4 °F -8.3 °F -0.4 °F 92% 30.16 in 0.2 mi East 4.6 mph - N/A Fog Light Freezing Fog
6:35 AM 1.4 °F - -0.4 °F 92% 30.16 in 0.2 mi Calm Calm - N/A Fog Light Freezing Fog
6:55 AM -0.4 °F - -0.4 °F 100% 30.15 in 0.2 mi Calm Calm - N/A Fog Light Freezing Fog
7:15 AM -0.4 °F -8.3 °F -0.4 °F 100% 30.15 in 0.2 mi WSW 3.5 mph - N/A Fog Light Freezing Fog
7:35 AM -0.4 °F - -2.2 °F 92% 30.15 in 0.2 mi Calm Calm - N/A Fog Light Freezing Fog
7:55 AM 1.4 °F - -0.4 °F 92% 30.14 in 3.0 mi Calm Calm - N/A   Clear
8:15 AM 5.0 °F - 1.4 °F 85% 30.14 in 9.0 mi Calm Calm - N/A   Clear
8:35 AM 5.0 °F - 3.2 °F 92% 30.14 in 10.0 mi Calm Calm - N/A   Clear
8:55 AM 8.6 °F - 8.6 °F 100% 30.13 in 10.0 mi Calm Calm - N/A   Clear
9:15 AM 8.6 °F 2.0 °F 8.6 °F 100% 30.13 in 10.0 mi South 3.5 mph - N/A   Clear
9:35 AM 12.2 °F 6.1 °F 12.2 °F 100% 30.13 in 10.0 mi SSE 3.5 mph - N/A   Clear
9:55 AM 14.0 °F 5.1 °F 14.0 °F 100% 30.12 in 10.0 mi SSW 5.8 mph - N/A   Clear
10:15 AM 17.6 °F 10.7 °F 17.6 °F 100% 30.11 in 10.0 mi SSW 4.6 mph - N/A Rain Light Freezing Rain
10:35 AM 21.2 °F 12.6 °F 21.2 °F 100% 30.11 in 10.0 mi SSW 6.9 mph - N/A Rain Light Freezing Rain
10:55 AM 26.6 °F 20.0 °F 26.6 °F 100% 30.11 in 10.0 mi SSW 5.8 mph - N/A   Clear
11:15 AM 28.4 °F 21.2 °F 28.4 °F 100% 30.10 in 10.0 mi SW 6.9 mph - N/A Rain Light Freezing Rain
11:35 AM 32.0 °F 24.8 °F 32.0 °F 100% 30.10 in 10.0 mi SSW 8.1 mph - N/A Rain Light Rain
11:55 AM 32.0 °F 24.8 °F 32.0 °F 100% 30.10 in 10.0 mi SSW 8.1 mph - N/A Rain Light Rain
12:15 PM 28.4 °F 19.7 °F 28.4 °F 100% 30.09 in 10.0 mi SSW 9.2 mph - N/A   Clear
12:35 PM 26.6 °F 16.8 °F 26.6 °F 100% 30.09 in 10.0 mi South 10.4 mph - N/A   Clear
12:55 PM 28.4 °F 19.7 °F 28.4 °F 100% 30.08 in 10.0 mi SSW 9.2 mph - N/A   Clear
1:15 PM 32.0 °F 22.5 °F 32.0 °F 100% 30.07 in 10.0 mi SSW 12.7 mph - N/A   Clear
1:35 PM 32.0 °F 23.6 °F 32.0 °F 100% 30.07 in 10.0 mi SSW 10.4 mph - N/A   Clear
1:55 PM 32.0 °F 24.2 °F 32.0 °F 100% 30.06 in 10.0 mi SSW 9.2 mph - N/A   Clear
2:15 PM 30.2 °F 20.2 °F 30.2 °F 100% 30.06 in 10.0 mi SSW 12.7 mph - N/A   Clear
2:35 PM 32.0 °F 23.0 °F 32.0 °F 100% 30.05 in 10.0 mi SSW 11.5 mph 17.3 mph N/A   Clear
2:55 PM 32.0 °F 24.8 °F 30.2 °F 93% 30.05 in 10.0 mi SSW 8.1 mph - N/A   Clear
3:15 PM 32.0 °F 23.6 °F 30.2 °F 93% 30.04 in 10.0 mi SSW 10.4 mph - N/A   Clear
3:35 PM 32.0 °F 23.6 °F 30.2 °F 93% 30.04 in 10.0 mi SSW 10.4 mph - N/A   Clear
3:55 PM 32.0 °F 24.2 °F 32.0 °F 100% 30.03 in 10.0 mi SW 9.2 mph - N/A   Clear
4:15 PM 32.0 °F 24.8 °F 30.2 °F 93% 30.03 in 10.0 mi SW 8.1 mph - N/A   Clear
4:35 PM 32.0 °F 24.2 °F 30.2 °F 93% 30.03 in 10.0 mi SSW 9.2 mph - N/A   Clear
4:55 PM 33.8 °F 26.4 °F 32.0 °F 93% 30.02 in 10.0 mi SSW 9.2 mph - N/A   Clear
5:15 PM 32.0 °F 24.8 °F 30.2 °F 93% 30.02 in 10.0 mi South 8.1 mph - N/A   Clear
5:35 PM 32.0 °F 24.8 °F 32.0 °F 100% 30.02 in 10.0 mi South 8.1 mph - N/A   Clear
5:55 PM 32.0 °F 26.4 °F 32.0 °F 100% 30.01 in 10.0 mi South 5.8 mph - N/A   Clear
6:15 PM 32.0 °F 27.5 °F 32.0 °F 100% 30.00 in 10.0 mi South 4.6 mph - N/A   Clear
6:35 PM 32.0 °F 24.2 °F 32.0 °F 100% 30.00 in 10.0 mi South 9.2 mph - N/A   Scattered Clouds
6:55 PM 32.0 °F 24.8 °F 32.0 °F 100% 30.00 in 10.0 mi South 8.1 mph - N/A   Mostly Cloudy
7:15 PM 32.0 °F 25.6 °F 32.0 °F 100% 30.00 in 10.0 mi South 6.9 mph - N/A   Mostly Cloudy
7:35 PM 32.0 °F 25.6 °F 32.0 °F 100% 29.99 in 10.0 mi South 6.9 mph - N/A   Mostly Cloudy
7:55 PM 32.0 °F 25.6 °F 32.0 °F 100% 29.99 in 10.0 mi SSW 6.9 mph - N/A   Mostly Cloudy
8:15 PM 30.2 °F 20.8 °F 30.2 °F 100% 29.99 in 10.0 mi SSW 11.5 mph - N/A   Mostly Cloudy
8:35 PM 30.2 °F 21.3 °F 30.2 °F 100% 29.99 in 10.0 mi SSW 10.4 mph - N/A   Overcast
8:55 PM 30.2 °F 21.9 °F 30.2 °F 100% 29.99 in 10.0 mi SSW 9.2 mph - N/A   Overcast
9:15 PM 28.4 °F 21.2 °F 28.4 °F 100% 29.99 in 10.0 mi WSW 6.9 mph - N/A Rain Light Freezing Rain
9:35 PM 30.2 °F 26.7 °F 30.2 °F 100% 29.98 in 10.0 mi WSW 3.5 mph - N/A   Overcast
9:55 PM 32.0 °F - 32.0 °F 100% 29.98 in 10.0 mi Calm Calm - N/A   Overcast
10:15 PM 32.0 °F 25.6 °F 32.0 °F 100% 29.98 in 10.0 mi SSW 6.9 mph - N/A   Overcast
10:35 PM 32.0 °F 28.7 °F 32.0 °F 100% 29.99 in 10.0 mi WSW 3.5 mph - N/A   Overcast
10:55 PM 32.0 °F 28.7 °F 32.0 °F 100% 29.98 in 10.0 mi South 3.5 mph - N/A   Overcast
11:15 PM 32.0 °F - 32.0 °F 100% 29.98 in 10.0 mi Calm Calm - N/A   Overcast
11:35 PM 32.0 °F - 32.0 °F 100% 29.97 in 10.0 mi Calm Calm - N/A   Overcast
11:55 PM 32.0 °F 26.4 °F 32.0 °F 100% 29.97 in 10.0 mi NNW 5.8 mph - N/A   Overcast